[[{"header":{"parameterUnit":"m.s-1","parameterCategory":1,"la1":30.2991,"la2":30.254,"lo1":-89.0895,"lo2":-89.0444,"dy":0.0017,"dx":0.0017,"nx":28,"ny":28,"refTime":"2025-05-31T09:00:00:Z","depth":0,"parameterNumber":2,"parameterNumberName":"U-component_of_WINDS"},"data":[0,0,0,0,0,0,0,0,0,0,0,0,0,0,0,0,0,0,0,0,0,0,0,0,0,0,0,0,0,0,0,0,0,0,0,0,0,0,0,0,0,0,0,0,0,0,0,0,0,0,0,0,0,0,0,0,0,0,-0.305,-0.3049,0,-0.3005,-0.3004,-0.3004,-0.2974,-0.2974,-0.2974,-0.2974,-0.2929,-0.2928,-0.2927,0,0,0,0,0,0,0,0,0,0,0,0,0,-0.3112,-0.3111,-0.305,-0.3049,-0.3049,-0.3005,-0.3004,-0.3004,-0.2974,-0.2974,-0.2974,-0.2974,-0.2929,-0.2928,-0.2927,0,0,0,0,0,0,0,0,0,0,0,0,0,-0.3078,-0.3111,-0.305,-0.3029,-0.3026,-0.3005,-0.3004,-0.3003,-0.2974,-0.2974,-0.2974,-0.2973,-0.293,-0.2928,-0.2927,-0.2923,0,0,-0.2922,-0.2921,0,0,0,0,0,0,0,0,-0.308,-0.3076,-0.3032,-0.303,-0.3027,-0.2995,-0.301,-0.2977,-0.2974,-0.2994,-0.2974,-0.2973,-0.2951,-0.2948,-0.294,-0.2921,-0.2919,-0.2922,-0.2921,-0.292,-0.292,0,0,0,0,0,0,0,-0.3082,-0.3077,-0.3032,-0.3032,-0.3029,-0.3022,-0.3017,-0.3003,-0.2975,-0.2992,-0.299,-0.2985,-0.295,-0.2942,-0.2939,-0.2918,-0.2922,-0.2921,-0.292,-0.2919,-0.2895,-0.2896,0,0,0,0,0,0,-0.3088,-0.308,-0.3033,-0.3031,-0.3053,-0.3021,-0.3015,-0.3006,-0.2975,-0.297,-0.2985,-0.2984,-0.2944,-0.2941,-0.2937,-0.2932,-0.292,-0.2919,-0.2918,-0.2895,-0.2895,-0.2896,0,0,0,0,0,0,-0.3089,-0.3084,-0.3035,-0.3054,-0.3048,-0.302,-0.301,-0.3005,-0.2997,-0.297,-0.2965,-0.2982,-0.2944,-0.2939,-0.2927,-0.293,-0.2918,-0.2917,-0.2895,-0.2895,-0.2896,-0.292,0,0,0,0,0,0,-0.3091,-0.3085,-0.3083,-0.3055,-0.3047,-0.3025,-0.301,-0.3004,-0.2994,-0.2992,-0.2965,-0.2961,-0.2943,-0.2929,-0.2925,-0.2927,-0.2916,-0.2894,-0.2895,-0.2895,-0.2919,-0.2922,-0.2924,0,0,0,0,0,-0.3093,-0.3091,-0.3083,-0.3077,-0.3044,-0.3026,-0.3021,-0.3001,-0.2994,-0.2992,-0.2975,-0.2962,-0.293,-0.2928,-0.2924,-0.2925,-0.2894,-0.2895,-0.2895,-0.2918,-0.2921,-0.2924,0,0,0,0,0,0,-0.312,-0.3087,-0.3077,-0.3066,-0.3049,-0.3021,-0.3017,-0.3004,-0.2989,-0.2988,-0.2964,-0.2958,-0.2948,-0.2935,-0.2934,-0.2921,-0.2911,-0.291,-0.2929,-0.2932,-0.2934,-0.2938,-0.2914,0,0,0,0,0,-0.3125,-0.3113,-0.3085,-0.3077,-0.3069,-0.3045,-0.3036,-0.3022,-0.3004,-0.2996,-0.2978,-0.2961,-0.2948,-0.2939,-0.2925,-0.2917,-0.2912,-0.2916,-0.2918,-0.292,-0.292,-0.2916,-0.2918,-0.2898,-0.2898,-0.2898,0,0,-0.3135,-0.3115,-0.3109,-0.3082,-0.3067,-0.3056,-0.3039,-0.3027,-0.3019,-0.2995,-0.2982,-0.2968,-0.2948,-0.2938,-0.2933,-0.2927,-0.2925,-0.2921,-0.2923,-0.2922,-0.2917,-0.2919,-0.2921,-0.2898,-0.2898,-0.2898,0,0,-0.3146,-0.313,-0.3122,-0.3108,-0.3085,-0.3069,-0.3067,-0.3041,-0.3031,-0.3018,-0.3,-0.299,-0.2967,-0.2953,-0.2943,-0.295,-0.2937,-0.2946,-0.2958,-0.2954,-0.2956,-0.2957,-0.296,-0.2962,-0.2946,-0.2947,-0.2947,0,-0.3161,-0.3142,-0.312,-0.3109,-0.3099,-0.3076,-0.3069,-0.3056,-0.3031,-0.3024,-0.3018,-0.2989,-0.2973,-0.2961,-0.2962,-0.2955,-0.2953,-0.2949,-0.2957,-0.2958,-0.2959,-0.2962,-0.2963,-0.2948,-0.2948,-0.2948,-0.2947,0,-0.3162,-0.3149,-0.3146,-0.3121,-0.311,-0.3102,-0.3079,-0.3071,-0.3058,-0.3043,-0.303,-0.3011,-0.2993,-0.2989,-0.2976,-0.2975,-0.2972,-0.2962,-0.2951,-0.2963,-0.2965,-0.2966,-0.295,-0.2949,-0.2949,-0.2948,0,0,-0.3188,-0.3152,-0.3152,-0.3141,-0.3115,-0.3105,-0.3095,-0.3078,-0.3071,-0.3055,-0.3047,-0.3028,-0.3019,-0.3007,-0.2993,-0.299,-0.2998,-0.298,-0.2979,-0.2985,-0.2996,-0.3004,-0.3005,-0.2989,-0.2989,-0.2989,-0.2998,0,-0.3196,-0.3178,-0.3158,-0.3147,-0.3135,-0.3114,-0.3106,-0.309,-0.3076,-0.3065,-0.3049,-0.3036,-0.3025,-0.3018,-0.3014,-0.2998,-0.3,-0.2997,-0.2982,-0.2982,-0.2988,-0.3006,-0.3015,-0.3023,-0.2998,-0.2999,-0.2999,0,-0.3203,-0.3187,-0.3175,-0.315,-0.3145,-0.3138,-0.312,-0.311,-0.3091,-0.3081,-0.3069,-0.3054,-0.3044,-0.3034,-0.3021,-0.3019,-0.3012,-0.3003,-0.3003,-0.3001,-0.2991,-0.3006,-0.3026,-0.3027,-0.3,-0.3,-0.3,0,-0.3225,-0.32,-0.319,-0.3181,-0.3152,-0.3148,-0.3136,-0.3117,-0.3108,-0.3093,-0.3087,-0.3071,-0.3062,-0.3051,-0.3032,-0.3027,-0.3021,-0.3009,-0.3013,-0.3013,-0.3012,-0.3013,-0.3032,-0.3007,-0.3007,-0.3007,-0.3007,0,-0.3236,-0.3229,-0.3199,-0.3193,-0.3185,-0.3163,-0.3156,-0.3142,-0.3126,-0.3117,-0.3098,-0.309,-0.3066,-0.3055,-0.3041,-0.3032,-0.3028,-0.302,-0.3017,-0.3022,-0.3023,-0.3018,-0.3017,-0.3008,-0.3007,-0.3007,-0.3007,0,-0.3259,-0.3238,-0.3226,-0.32,-0.3193,-0.3189,-0.3167,-0.316,-0.3145,-0.3134,-0.313,-0.3107,-0.3094,-0.3074,-0.3055,-0.3045,-0.3039,-0.3033,-0.3045,-0.3043,-0.3048,-0.3048,-0.3064,-0.3066,-0.304,-0.304,-0.304,0,-0.3267,-0.3262,-0.3235,-0.3228,-0.3216,-0.3204,-0.3195,-0.3173,-0.3164,-0.3143,-0.314,-0.3125,-0.3112,-0.3092,-0.3074,-0.3059,-0.3053,-0.306,-0.3051,-0.3057,-0.3054,-0.3054,-0.3054,-0.3062,-0.3062,-0.3063,-0.3063,0,-0.3285,-0.3275,-0.3262,-0.3246,-0.3235,-0.3221,-0.3206,-0.3201,-0.3177,-0.3168,-0.3154,-0.3144,-0.3125,-0.3111,-0.3094,-0.3082,-0.3069,-0.3066,-0.3066,-0.3072,-0.308,-0.3076,-0.3052,-0.3066,-0.3065,-0.3065,-0.3065,-0.3065,-0.3302,-0.3296,-0.3276,-0.3263,-0.3249,-0.3236,-0.3229,-0.3213,-0.3201,-0.3183,-0.3171,-0.3159,-0.3141,-0.3117,-0.3106,-0.3096,-0.309,-0.309,-0.309,-0.3091,-0.3093,-0.3081,-0.3093,-0.3093,-0.3093,-0.3093,-0.3093,0,-0.3319,-0.3305,-0.3293,-0.3273,-0.3262,-0.325,-0.3233,-0.3226,-0.3214,-0.3199,-0.3187,-0.3171,-0.3158,-0.3139,-0.3124,-0.312,-0.3113,-0.3117,-0.3117,-0.3115,-0.3099,-0.3101,-0.3122,-0.3122,-0.3122,-0.3122,-0.3122,-0.3122,-0.3327,-0.3317,-0.3305,-0.3289,-0.3275,-0.3262,-0.3254,-0.3242,-0.3229,-0.3213,-0.3202,-0.3189,-0.3172,-0.3156,-0.3144,-0.3139,-0.3134,-0.314,-0.3133,-0.3118,-0.3116,-0.3113,-0.3115,-0.3139,-0.3139,-0.3149,-0.315,-0.315]},{"header":{"parameterUnit":"m.s-1","parameterCategory":1,"la1":30.2991,"la2":30.254,"lo1":-89.0895,"lo2":-89.0444,"dy":0.0017,"dx":0.0017,"nx":28,"ny":28,"refTime":"2025-05-31T09:00:00:Z","depth":0,"parameterNumber":3,"parameterNumberName":"V-component_of_WINDS"},"data":[0,0,0,0,0,0,0,0,0,0,0,0,0,0,0,0,0,0,0,0,0,0,0,0,0,0,0,0,0,0,0,0,0,0,0,0,0,0,0,0,0,0,0,0,0,0,0,0,0,0,0,0,0,0,0,0,0,0,2.9288,2.9288,0,2.9258,2.9257,2.9257,2.9188,2.9186,2.9185,2.9183,2.9153,2.9154,2.9154,0,0,0,0,0,0,0,0,0,0,0,0,0,2.9286,2.9286,2.9288,2.9287,2.9287,2.9258,2.9257,2.9257,2.9188,2.9186,2.9184,2.9183,2.9153,2.9154,2.9154,0,0,0,0,0,0,0,0,0,0,0,0,0,2.9274,2.9286,2.9288,2.9249,2.9245,2.9258,2.9257,2.9257,2.9188,2.9186,2.9184,2.9182,2.9153,2.9154,2.9155,2.9203,0,0,2.9157,2.9157,0,0,0,0,0,0,0,0,2.9275,2.9275,2.9255,2.9252,2.9248,2.9224,2.9246,2.9239,2.9189,2.921,2.9183,2.9181,2.9179,2.9177,2.9176,2.9201,2.92,2.9157,2.9158,2.9158,2.9158,0,0,0,0,0,0,0,2.9276,2.9275,2.9276,2.9255,2.925,2.9233,2.9229,2.9244,2.9207,2.9208,2.9203,2.92,2.9176,2.9176,2.9175,2.92,2.9157,2.9158,2.9158,2.9159,2.9261,2.9263,0,0,0,0,0,0,2.9282,2.9277,2.9277,2.9275,2.9256,2.9235,2.9231,2.9234,2.9206,2.92,2.9202,2.9197,2.9175,2.9174,2.9174,2.9227,2.9158,2.9159,2.9159,2.9259,2.9262,2.9264,0,0,0,0,0,0,2.9283,2.9283,2.9278,2.9274,2.9272,2.9237,2.9242,2.9234,2.9234,2.9202,2.9195,2.9208,2.9174,2.9173,2.9196,2.9225,2.9159,2.916,2.9256,2.926,2.9263,2.9335,0,0,0,0,0,0,2.9283,2.9284,2.9301,2.9275,2.9273,2.9301,2.9244,2.9235,2.9235,2.9228,2.9206,2.92,2.9172,2.9195,2.9197,2.9225,2.9161,2.9254,2.9258,2.9262,2.933,2.934,2.9349,0,0,0,0,0,2.9283,2.9323,2.9303,2.9303,2.9295,2.9302,2.9301,2.9267,2.9238,2.9256,2.9235,2.9201,2.9222,2.9198,2.9199,2.9228,2.9252,2.9257,2.9262,2.9325,2.9338,2.9349,0,0,0,0,0,0,2.9354,2.9319,2.9296,2.9329,2.9319,2.9291,2.9312,2.9282,2.9281,2.9274,2.9233,2.9229,2.9257,2.9245,2.9219,2.9273,2.9231,2.9237,2.9279,2.9291,2.9301,2.9302,2.9161,0,0,0,0,0,2.9374,2.9383,2.9352,2.9384,2.938,2.9347,2.935,2.9324,2.9313,2.9308,2.9289,2.9279,2.9283,2.9287,2.9289,2.9328,2.9322,2.9349,2.9359,2.9367,2.9372,2.939,2.9401,2.9281,2.9281,2.9281,0,0,2.9414,2.9396,2.9405,2.9398,2.9387,2.9398,2.9344,2.9358,2.9364,2.931,2.933,2.9316,2.9302,2.9333,2.9346,2.9324,2.9404,2.9373,2.938,2.938,2.9396,2.9408,2.9418,2.9284,2.9283,2.9283,0,0,2.9493,2.9481,2.9505,2.9496,2.948,2.9458,2.9464,2.944,2.9428,2.9448,2.9407,2.9415,2.9423,2.9414,2.9411,2.9486,2.9454,2.9488,2.9539,2.9557,2.9567,2.9575,2.96,2.961,2.9494,2.9494,2.9494,0,2.9545,2.9558,2.9522,2.9537,2.9535,2.9487,2.9511,2.9504,2.949,2.949,2.9466,2.9474,2.9462,2.9489,2.9507,2.9507,2.9512,2.949,2.9569,2.9576,2.9583,2.9607,2.9617,2.9498,2.9497,2.9497,2.9497,0,2.9623,2.9633,2.9655,2.9642,2.9642,2.9663,2.9629,2.9634,2.9609,2.9589,2.9609,2.9593,2.959,2.9595,2.9571,2.9619,2.9605,2.9576,2.9533,2.96,2.9621,2.963,2.9504,2.9502,2.9501,2.95,0,0,2.9744,2.9711,2.9719,2.9712,2.9692,2.9699,2.9717,2.9713,2.9718,2.9711,2.9724,2.9732,2.9704,2.97,2.9675,2.9691,2.975,2.9659,2.9658,2.9675,2.98,2.9821,2.9832,2.973,2.9731,2.9732,2.98,0,2.9816,2.9844,2.9812,2.9846,2.9855,2.9809,2.9824,2.9813,2.9795,2.9799,2.978,2.9785,2.9749,2.9746,2.9761,2.974,2.9774,2.9735,2.974,2.9741,2.9743,2.9844,2.9866,2.9931,2.9809,2.981,2.9811,0,2.9904,2.99,2.9935,2.9911,2.9913,2.9928,2.9921,2.9927,2.9913,2.9899,2.9895,2.9864,2.988,2.9839,2.986,2.9833,2.9834,2.9824,2.9826,2.9824,2.9779,2.9842,2.9951,2.996,2.9824,2.9823,2.9822,0,2.9987,2.999,3.0011,3.0007,2.998,2.9991,2.9981,2.9965,2.9965,2.996,2.9959,2.9957,2.9955,2.9954,2.9923,2.9897,2.9947,2.9904,2.9934,2.9935,2.9945,2.9945,3.0054,2.9949,2.9949,2.9949,2.9949,0,3.007,3.0093,3.0048,3.0061,3.0085,3.0048,3.0073,3.0058,3.0044,3.0053,3.0014,3.0023,2.9983,2.9988,2.9964,2.9984,2.9984,2.9972,2.9965,2.9975,2.9976,2.9973,2.9967,2.9951,2.9951,2.995,2.995,0,3.0166,3.0137,3.0156,3.0129,3.0123,3.0142,3.0119,3.0129,3.0109,3.0121,3.0121,3.0089,3.0093,3.0063,3.0061,3.0045,3.0075,3.0061,3.008,3.0074,3.0106,3.0103,3.0216,3.0228,3.0117,3.0118,3.0119,0,3.022,3.0236,3.0211,3.0213,3.0205,3.021,3.021,3.0174,3.0175,3.0161,3.0173,3.0173,3.0171,3.0179,3.0156,3.0154,3.0139,3.0179,3.0138,3.0147,3.0137,3.0136,3.0137,3.0187,3.0188,3.0189,3.019,0,3.0318,3.0302,3.0303,3.0299,3.0299,3.0294,3.0287,3.0291,3.0253,3.0256,3.0259,3.0258,3.0255,3.0256,3.0249,3.0238,3.0207,3.0203,3.021,3.0219,3.0228,3.0221,3.0101,3.02,3.0199,3.0199,3.0198,3.0198,3.0393,3.0405,3.0388,3.039,3.0381,3.0375,3.0383,3.0363,3.0365,3.036,3.0339,3.0346,3.0331,3.0319,3.0311,3.0315,3.0296,3.0306,3.0308,3.0311,3.0316,3.0229,3.0314,3.0314,3.0314,3.0313,3.0313,0,3.0487,3.0475,3.0477,3.0467,3.0468,3.044,3.043,3.0433,3.0439,3.0428,3.0427,3.043,3.043,3.0407,3.0404,3.0412,3.0397,3.0412,3.041,3.0408,3.0334,3.0328,3.0423,3.0423,3.0423,3.0423,3.0423,3.0423,3.0537,3.0555,3.0538,3.0551,3.0538,3.0543,3.054,3.0534,3.0524,3.0529,3.0529,3.0514,3.0498,3.0493,3.0492,3.0485,3.0485,3.0504,3.0492,3.0424,3.0413,3.0403,3.0396,3.0505,3.0505,3.0565,3.0566,3.0566]}]]